RH
80 81 81 82 83 83 83 81 80 79 80 83 84 83 84 81 72 52 41 48 45 32 33 35 34 34 33 33 41 46 44 46 48 54 56 60 58 54 65 72 93 69 65 66 52 50 61 46 28 49 80 38 35 33
79 79 79 79 80 80 81 82 82 82 81 79 80 82 81 82 82 71 29 36 38 37 41 36 33 32 32 32 35 48 44 39 52 63 46 42 54 56 52 69 39 79 91 66 68 93 76 48 100 55 38 35 32 29
76 76 76 76 77 78 78 79 79 80 80 80 79 80 81 79 81 73 31 37 35 33 32 34 36 37 34 38 35 43 35 36 45 41 50 44 54 42 57 50 42 40 34 48 51 60 41 40 31 30 30 32 28 23
76 76 76 76 76 75 76 76 77 78 78 77 78 79 80 78 75 77 37 41 36 27 56 38 30 35 30 36 39 41 44 46 49 42 46 49 49 36 42 40 40 35 34 43 39 32 29 27 28 30 27 27 27 22
80 78 77 76 76 75 75 75 75 75 77 77 78 78 78 78 73 47 37 41 38 41 48 32 32 25 29 36 37 39 43 45 38 49 52 47 33 36 31 29 37 25 39 49 59 31 33 26 27 24 26 25 24 24
86 84 82 81 79 78 78 77 76 76 75 75 78 80 80 77 72 31 92 37 39 44 56 53 31 30 32 35 38 42 42 43 40 43 46 36 32 38 38 32 21 23 24 27 25 18 24 20 25 21 23 23 22 23
95 94 92 91 89 87 84 82 80 80 79 78 77 81 79 76 47 49 43 48 64 55 59 52 32 30 29 33 35 37 40 39 38 40 42 35 30 41 46 38 18 14 19 22 20 18 25 20 22 22 22 24 28 19
89 92 94 95 94 94 92 88 84 82 82 81 79 82 69 71 69 53 49 62 61 49 49 63 41 34 32 37 40 33 36 36 39 39 34 35 28 35 54 28 21 15 14 20 20 18 18 18 16 19 20 22 22 22
87 88 89 89 91 92 94 92 87 84 82 80 81 64 46 42 65 42 76 68 45 44 66 42 42 57 33 33 32 36 33 52 34 46 42 31 37 45 36 27 19 16 18 19 18 18 16 18 16 18 22 23 23 22
81 78 79 81 82 85 89 93 88 83 81 76 43 76 100 52 71 62 52 86 82 75 43 42 30 37 32 31 35 35 40 46 55 46 36 46 42 28 21 18 17 17 16 17 22 26 23 18 19 17 20 21 21 22
71 70 72 72 73 78 82 89 90 84 64 73 99 75 36 64 38 45 94 63 51 44 36 32 37 41 32 46 44 31 45 37 46 39 50 46 42 27 21 21 21 21 20 16 18 19 20 19 18 20 20 23 23 23
67 68 70 74 80 79 81 86 88 60 66 74 62 50 45 49 52 52 46 36 29 28 24 26 33 34 36 39 43 38 38 32 40 39 49 48 52 24 19 20 22 23 24 23 18 19 19 19 19 20 21 22 23 24
68 68 69 78 87 87 87 87 84 82 69 46 60 46 53 65 92 37 95 29 35 26 26 27 36 38 35 39 45 40 44 39 31 55 42 41 31 24 24 22 23 26 27 29 26 22 22 20 20 21 20 20 23 24
67 65 66 69 71 76 82 85 84 70 51 62 59 98 51 64 43 34 33 32 28 26 28 30 34 45 40 49 45 46 32 35 46 47 33 38 33 36 35 29 24 26 29 30 30 29 27 25 23 27 29 23 34 27
66 62 60 66 68 68 70 78 84 54 51 55 49 77 43 35 34 34 34 33 32 31 34 36 34 36 45 50 44 39 52 51 33 29 26 29 32 33 37 39 34 30 29 30 30 31 31 30 27 24 26 25 24 32
65 65 56 74 70 69 69 68 56 48 48 50 45 50 44 48 56 49 37 34 30 36 32 29 41 42 47 40 38 52 38 31 27 27 29 28 30 34 38 37 36 39 36 33 33 32 30 31 30 27 26 27 36 36
69 58 71 70 69 70 68 60 62 64 57 54 58 49 52 47 50 40 31 29 28 32 41 38 48 44 32 39 36 27 31 28 29 30 25 28 32 35 37 37 38 37 40 40 36 34 33 31 29 28 30 26 27 27
54 49 66 68 65 57 64 61 66 76 69 51 64 55 43 38 40 35 30 26 28 28 29 36 32 40 48 39 33 30 33 34 32 34 34 36 40 40 36 38 36 35 35 36 37 36 34 33 32 29 28 27 25 26
60 60 67 67 65 74 77 77 77 66 51 50 48 42 39 37 31 29 29 28 28 29 33 36 40 40 36 28 29 30 32 33 38 37 35 35 34 35 35 34 36 36 33 32 36 37 36 34 31 28 24 23 24 21
62 65 65 64 64 79 96 71 63 70 62 55 44 44 37 35 28 29 29 27 26 29 39 43 42 32 29 26 26 29 30 31 33 37 36 31 28 29 32 36 32 34 35 34 32 50 37 35 30 27 26 25 23 23
60 56 58 56 73 76 73 73 56 44 42 53 45 46 43 35 38 39 39 29 38 41 40 30 28 24 25 22 22 25 28 26 28 29 32 35 30 29 29 29 30 28 30 34 36 37 47 41 37 30 34 35 33 30
60 58 76 83 99 96 84 55 57 47 54 47 42 40 45 51 48 42 33 39 39 33 27 25 22 21 24 24 22 23 24 25 28 32 41 40 47 49 49 47 46 46 37 37 39 45 46 41 40 40 48 62 49 38
60 64 91 98 85 82 67 48 62 50 60 49 40 42 40 39 36 24 40 36 33 25 21 20 20 21 24 24 24 25 24 26 28 30 29 36 41 39 41 51 58 61 59 49 42 47 52 54 52 63 57 59 64 70
67 94 84 80 78 75 60 71 53 51 48 48 43 39 34 38 31 37 39 33 30 24 23 22 19 24 27 30 33 33 33 29 30 30 32 42 47 44 40 44 45 50 55 50 45 48 52 61 62 61 66 98 100 100
88 79 88 77 70 75 73 70 62 50 70 54 41 41 41 37 45 41 39 36 35 30 28 28 34 40 49 50 51 50 45 44 46 48 41 32 38 44 47 45 48 48 50 63 76 70 66 68 72 68 73 100 99 100
83 73 85 71 69 70 59 74 73 70 47 52 41 33 34 41 50 54 37 35 35 42 50 50 53 52 58 55 60 63 61 51 50 55 50 45 49 53 60 65 65 64 50 57 78 91 93 86 91 76 84 81 89 99
79 74 63 40 45 45 55 52 42 45 58 59 44 44 46 58 64 42 31 28 38 44 41 45 50 57 61 64 66 66 66 62 56 56 55 57 60 55 58 68 67 63 56 59 72 92 99 99 99 93 95 97 96 100
74 60 72 57 52 44 66 61 61 61 48 34 35 50 58 55 50 30 35 41 47 47 52 55 58 60 67 73 76 79 77 78 70 64 64 64 59 59 55 59 59 66 65 69 77 92 98 100 100 100 100 100 100 100
77 55 50 75 68 57 61 62 56 40 31 33 61 49 40 30 43 48 46 49 53 58 64 72 75 74 76 75 77 77 81 88 92 97 95 87 79 71 62 65 66 66 70 82 92 99 98 100 100 100 100 100 100 100
73 49 63 70 76 72 63 48 56 46 37 34 34 36 35 42 48 48 54 57 60 78 100 99 96 99 97 96 90 87 85 84 95 99 98 94 84 75 77 82 83 82 83 99 98 97 97 99 99 100 100 100 100 100
48 59 64 59 74 71 71 77 82 57 66 78 78 77 64 60 58 52 53 56 60 99 100 93 87 94 98 91 91 93 91 90 88 92 97 98 99 100 99 93 90 92 96 99 100 100 100 100 100 100 100 100 100 100
68 70 75 76 77 78 72 91 86 87 90 93 90 90 89 89 80 54 50 88 100 100 88 82 86 88 85 80 86 88 81 82 81 86 88 91 96 97 98 96 95 98 100 100 100 100 100 100 100 100 100 100 100 100
79 78 73 74 77 72 76 79 64 67 81 83 80 78 81 78 75 61 52 70 86 90 82 84 86 89 82 82 81 75 68 71 75 77 82 84 85 87 94 99 99 100 99 100 100 100 100 100 100 100 100 100 100 100
Wind_Speed
16 16 16 15 16 16 16 16 16 17 17 18 17 16 14 12 11 7 4 4 6 3 5 6 4 4 4 5 3 5 4 5 5 5 2 3 4 2 4 6 4 4 3 4 5 4 5 10 8 7 1 3 5 5
15 15 14 15 15 15 15 15 16 16 16 17 17 17 16 15 14 7 2 1 4 5 6 2 7 7 7 5 4 6 3 3 4 4 3 3 4 4 7 4 7 6 5 5 4 4 2 13 5 10 7 7 5 5
13 12 13 13 13 13 14 15 15 15 15 15 16 17 18 17 16 12 3 4 4 4 4 5 6 11 7 7 5 5 5 4 4 4 5 4 5 5 5 5 9 9 12 6 7 5 14 12 15 10 12 9 7 6
11 11 12 12 12 12 12 13 13 13 13 13 13 13 13 14 15 13 4 4 4 4 3 3 3 4 6 7 7 8 4 1 5 4 5 6 6 4 5 8 11 9 7 9 11 14 7 13 16 15 13 11 10 8
10 10 10 11 11 11 11 12 12 12 13 12 12 12 11 11 11 7 3 3 3 4 4 4 0 9 6 8 8 7 7 7 5 5 5 7 8 6 8 10 13 11 11 10 6 8 10 5 17 17 15 14 12 10
8 8 8 9 9 10 10 11 11 11 11 12 12 12 11 12 8 4 3 3 5 4 4 4 4 3 8 7 7 7 8 7 8 5 5 7 8 3 5 7 9 12 15 17 5 4 13 3 15 18 16 15 13 11
11 10 10 10 10 10 11 11 12 13 13 13 12 11 10 11 6 1 2 4 7 5 4 4 3 4 4 6 5 5 5 5 6 7 9 11 8 6 6 8 9 9 16 16 14 6 12 12 13 18 17 15 12 12
13 13 13 11 11 11 11 12 13 14 15 15 14 11 7 4 9 3 4 5 7 3 3 4 1 3 4 4 4 4 6 6 5 6 6 6 5 5 10 17 16 15 10 16 16 15 8 12 13 18 17 16 16 14
15 15 14 14 14 14 13 13 15 17 18 18 12 6 4 4 2 5 5 5 1 3 3 2 4 3 3 3 3 3 4 4 5 6 7 5 7 11 18 16 14 12 14 12 17 17 17 14 17 18 19 19 18 16
15 15 15 15 15 16 16 16 18 20 20 13 5 2 3 2 2 5 2 2 2 1 2 3 4 3 3 1 3 3 3 4 4 6 3 4 11 22 23 22 19 18 16 14 15 21 20 20 20 20 22 18 18 16
13 15 17 17 18 17 17 17 19 23 5 5 4 2 5 2 4 1 2 2 1 2 2 3 4 6 3 5 5 2 4 4 4 3 3 4 5 7 11 10 12 14 14 16 19 18 19 19 17 18 18 19 18 17
13 15 16 18 17 16 16 15 15 9 5 6 6 6 3 3 0 1 2 1 2 5 2 5 5 4 3 3 4 3 4 3 6 3 3 4 3 15 15 14 15 13 13 16 16 19 19 19 19 17 18 18 19 17
9 15 17 20 21 21 16 13 13 13 13 3 3 3 2 2 2 1 0 3 1 4 3 4 4 2 3 4 5 3 5 6 2 3 6 4 6 11 14 13 14 13 12 12 15 15 18 19 18 19 18 18 18 18
10 6 14 17 19 20 20 18 17 10 5 2 3 4 2 1 1 3 5 5 4 5 6 6 5 3 2 3 4 5 5 3 5 6 8 4 6 9 11 14 14 15 14 11 10 12 16 18 18 18 16 17 15 19
10 3 11 15 20 20 20 20 17 7 3 2 2 3 1 3 1 3 4 3 5 6 6 7 6 5 4 5 5 5 5 7 7 6 3 4 6 9 12 12 16 17 16 13 11 10 13 16 18 18 18 17 18 16
11 10 7 19 20 21 17 14 5 3 2 3 3 3 1 4 3 3 4 6 3 6 8 5 4 5 6 5 7 8 6 7 6 7 4 8 12 13 15 16 15 13 15 15 14 13 13 14 17 18 17 18 17 17
13 5 13 18 20 18 9 5 4 3 3 3 3 2 4 4 4 5 6 6 6 6 5 5 5 7 5 7 9 9 15 14 12 11 10 13 12 13 15 15 15 17 16 15 15 14 13 12 13 14 18 18 18 20
3 7 13 16 16 6 4 3 2 2 5 4 3 2 3 4 5 6 6 6 6 6 5 7 6 12 9 13 14 14 15 18 18 15 15 17 21 21 20 22 19 18 19 19 15 16 12 11 12 12 16 17 17 17
8 9 12 13 11 4 4 2 2 3 3 4 4 6 5 5 5 6 6 6 5 6 5 4 8 7 10 12 15 16 15 15 15 16 18 23 23 22 22 22 22 22 21 18 18 11 11 14 11 10 11 11 13 13
7 7 9 13 12 2 3 2 1 4 4 2 4 6 6 5 6 6 8 7 7 7 6 7 10 12 13 15 16 17 18 17 17 19 19 17 17 22 19 17 15 19 19 20 16 14 12 9 9 9 9 11 11 12
7 7 7 5 4 3 4 3 4 3 5 4 4 5 6 7 8 8 8 7 8 7 11 13 14 14 17 16 15 16 18 18 17 16 17 17 16 18 18 17 20 18 17 16 14 14 12 12 9 9 7 7 9 11
2 4 3 4 2 1 4 4 5 5 4 5 6 5 5 6 7 8 7 9 8 10 10 12 13 15 15 19 18 20 21 24 22 17 18 19 16 16 16 16 17 17 16 15 15 15 13 13 12 10 8 8 9 10
3 1 2 1 3 3 4 3 5 4 4 4 3 4 5 4 5 3 4 6 6 9 12 12 15 19 20 21 22 22 23 23 17 16 16 15 14 15 15 15 15 16 16 16 15 14 14 13 12 12 12 11 10 8
1 2 3 3 4 3 2 4 4 4 4 4 4 5 5 4 4 6 9 11 10 10 12 15 14 14 15 21 17 16 16 16 17 16 15 16 14 15 15 14 15 15 16 16 16 15 13 14 15 13 12 8 7 6
4 5 5 7 5 5 5 5 5 5 5 6 6 8 5 3 5 7 14 11 9 8 12 12 13 13 16 16 16 17 22 16 16 17 15 15 15 14 14 14 15 15 14 15 16 18 16 14 12 15 14 9 11 12
7 8 9 8 5 7 7 5 6 7 4 4 5 4 3 6 9 8 5 6 8 10 11 12 13 15 15 15 16 16 18 14 14 16 16 14 15 15 14 16 16 19 13 13 14 16 18 17 15 18 16 15 12 11
9 9 7 6 5 6 5 6 7 6 6 6 4 4 5 6 8 5 5 8 11 11 12 12 13 14 15 16 15 16 15 15 17 15 15 15 16 14 14 16 22 19 16 18 16 17 18 18 18 17 16 11 11 11
10 8 13 9 11 8 13 8 5 7 7 6 5 7 6 8 7 5 11 12 12 13 13 12 12 12 14 14 14 14 14 14 17 17 14 16 15 13 15 14 16 23 18 18 17 17 17 17 15 16 15 12 11 9
8 7 10 12 12 8 10 10 10 8 8 9 11 13 13 11 11 13 13 12 12 11 12 11 12 12 13 12 11 12 13 12 16 22 25 17 19 12 10 11 12 12 13 13 16 13 18 18 16 14 15 13 12 10
11 13 10 12 12 12 9 10 9 10 10 12 13 13 13 12 11 11 12 11 11 10 5 8 11 10 12 12 17 18 11 12 11 12 15 18 17 14 13 13 15 14 13 13 15 15 15 14 13 10 10 9 8 8
5 13 15 16 15 14 13 12 11 11 11 12 11 14 17 16 12 12 12 13 5 1 5 8 11 9 10 11 13 17 20 11 15 18 17 13 14 14 14 14 14 14 13 14 13 12 11 10 8 9 10 11 12 11
11 14 13 18 15 10 11 11 11 13 12 13 14 12 13 13 17 11 1 4 3 3 6 9 10 12 11 12 12 13 20 18 18 15 21 15 14 16 15 13 13 12 14 15 14 13 12 12 10 10 9 11 11 13
12 11 12 11 12 15 10 9 7 9 10 13 13 13 13 13 19 14 4 5 4 3 7 8 9 10 14 17 17 17 18 15 20 24 25 24 25 22 17 12 12 12 15 14 12 12 14 16 14 14 12 12 12 13
Wind_Direction
55 51 46 44 41 38 35 32 29 27 25 23 22 22 20 12 354 325 71 10 312 293 137 222 207 203 187 249 246 103 195 207 200 252 266 257 270 305 266 215 202 265 261 241 254 267 265 153 166 226 288 243 239 255
57 52 48 45 42 39 35 31 29 24 21 19 17 16 13 8 357 336 275 44 319 273 24 238 249 277 293 325 284 170 214 213 203 249 252 280 261 244 265 295 182 238 225 310 261 274 193 193 183 222 230 258 260 275
58 54 50 47 43 38 34 31 27 23 21 19 16 13 7 3 356 349 15 5 256 283 212 203 218 209 232 238 261 263 201 260 219 265 297 293 274 257 270 267 246 215 220 239 267 275 243 217 225 227 226 240 252 246
55 50 46 39 34 32 28 24 21 19 16 12 9 9 7 358 345 329 12 3 282 297 283 130 149 195 203 213 223 244 326 47 283 224 242 253 262 212 272 290 276 259 164 227 249 248 232 225 222 224 222 225 234 241
50 47 41 36 32 28 22 17 11 7 3 0 356 353 350 345 336 302 39 31 19 308 300 307 144 206 193 204 215 219 234 238 223 215 238 254 250 272 272 267 258 214 215 210 224 217 198 231 202 206 212 215 220 229
49 47 43 34 25 18 12 6 360 353 347 343 340 337 331 324 323 266 358 105 6 331 277 277 94 196 196 211 218 216 228 237 258 249 262 249 241 274 275 267 248 219 212 220 252 236 202 217 182 194 204 208 209 219
30 26 23 18 10 5 360 353 347 340 333 329 325 321 315 305 288 259 335 27 343 305 267 283 203 111 193 205 218 227 218 250 248 268 245 258 251 188 258 255 266 260 214 221 229 209 202 200 188 190 199 200 200 215
39 34 29 18 7 357 348 342 335 328 323 319 317 309 290 102 107 171 90 6 318 285 260 287 336 188 196 207 240 208 241 217 228 242 246 251 251 211 255 249 263 269 245 215 217 211 238 198 197 189 195 198 205 208
47 39 31 22 13 360 344 332 329 325 321 317 308 312 234 247 354 53 341 282 270 301 300 275 296 38 181 261 266 200 257 251 243 233 248 247 218 226 248 273 281 269 242 236 220 217 219 209 203 194 198 201 207 209
38 32 23 14 6 359 354 343 333 328 324 305 310 29 357 56 304 241 196 46 59 277 229 284 335 321 267 237 225 270 197 254 258 218 238 266 257 262 274 280 278 277 279 225 231 219 214 216 207 204 203 205 209 211
36 26 18 7 358 351 348 345 337 326 5 31 356 1 351 151 239 312 336 289 118 198 172 21 346 321 93 297 304 270 289 270 262 121 232 245 252 294 7 343 332 322 291 253 232 238 228 227 219 214 212 210 212 212
35 22 12 1 349 341 341 345 345 339 360 331 297 270 270 308 9 8 321 311 270 29 73 336 14 325 325 315 276 207 265 268 262 88 252 254 285 354 353 346 338 329 315 296 253 238 238 227 229 220 216 213 215 215
13 14 10 8 10 4 356 353 350 324 286 200 253 284 332 282 36 318 224 113 18 3 36 338 326 303 190 217 261 255 248 247 10 248 246 221 357 349 346 344 341 342 329 312 297 268 247 240 227 225 223 216 213 216
351 358 4 8 3 356 349 346 341 331 283 323 319 315 301 226 260 14 5 16 22 311 336 328 309 250 277 247 241 255 250 280 248 233 239 185 13 358 353 349 341 339 338 324 300 285 266 249 240 229 227 224 211 215
349 317 348 0 352 350 341 333 318 298 306 286 300 280 259 14 300 6 335 293 13 340 320 312 271 225 268 243 234 244 238 241 233 251 327 34 341 344 346 341 345 341 334 325 316 293 276 257 244 235 228 225 218 216
339 281 359 343 340 341 338 320 307 302 271 260 229 260 308 304 23 347 336 323 20 332 310 268 280 276 236 238 216 217 240 233 274 306 1 324 339 339 339 339 338 336 335 333 321 307 293 276 254 239 234 225 228 211
308 19 351 335 333 320 332 313 345 319 307 254 209 255 278 277 282 306 318 324 343 305 302 302 268 233 271 243 232 247 258 274 290 302 315 307 304 321 326 326 331 334 334 328 320 310 301 289 269 245 238 229 225 229
337 1 4 342 337 336 333 13 323 303 261 238 241 251 252 278 290 290 301 313 306 302 297 267 276 266 266 268 277 300 319 317 307 310 315 321 329 328 319 314 313 318 318 314 320 315 301 287 265 253 245 240 233 225
354 345 350 343 340 294 331 349 341 285 273 301 280 272 271 280 281 287 287 283 283 283 283 257 251 255 259 277 299 310 314 315 313 314 311 311 309 307 308 307 307 302 297 297 303 298 304 299 279 266 257 239 236 231
306 308 337 325 316 309 302 267 230 270 270 305 293 274 269 271 285 287 283 281 278 277 246 235 253 277 296 312 309 306 304 305 304 299 297 297 299 301 297 299 290 305 306 299 290 286 283 283 278 264 253 259 252 237
263 29 309 298 353 338 301 293 256 263 309 282 311 293 276 273 268 270 269 279 274 254 267 270 282 287 289 297 296 290 291 292 289 292 304 303 304 301 295 284 278 274 273 270 275 276 274 270 265 282 278 247 249 262
332 324 328 355 293 311 274 259 278 333 276 266 284 252 262 258 264 257 259 259 260 261 264 270 283 294 291 290 293 294 292 288 284 284 288 292 298 298 295 292 288 288 286 278 273 274 270 269 273 261 283 300 287 273
280 303 279 275 272 235 279 273 253 245 251 250 234 245 238 254 248 262 247 232 260 279 283 288 298 297 292 292 294 295 293 288 280 281 287 283 277 291 296 295 287 279 276 274 274 271 272 259 258 254 254 250 248 252
109 251 245 240 227 257 252 256 247 256 250 243 245 257 273 255 268 258 258 269 276 286 289 294 304 301 299 295 289 288 287 290 291 290 288 290 288 284 289 296 293 296 292 284 278 272 267 264 264 255 250 223 214 223
247 213 212 221 218 218 226 230 233 233 233 227 262 275 265 252 239 258 280 273 260 285 297 307 315 318 300 297 297 294 294 290 287 284 281 286 291 287 285 288 288 287 289 301 295 281 272 267 255 256 246 209 219 220
241 204 206 203 207 205 205 225 217 222 246 235 250 253 261 271 266 242 226 276 293 311 318 317 315 307 300 299 301 301 300 296 287 281 281 285 284 282 289 289 290 287 283 283 285 295 293 282 269 263 254 235 225 232
233 227 206 229 218 201 234 250 242 239 230 232 242 236 232 234 237 242 231 308 315 317 313 315 308 302 298 299 302 298 300 298 289 284 287 280 274 273 275 279 280 277 284 280 281 282 281 287 282 273 262 230 224 224
221 226 212 201 219 231 235 237 239 221 224 223 231 209 227 221 228 303 314 312 308 311 303 307 303 301 300 303 302 302 299 296 292 285 278 272 271 276 272 265 266 273 271 274 276 278 277 270 267 268 256 246 240 223
216 206 219 220 218 231 225 219 224 226 222 226 240 238 252 269 295 298 299 303 298 304 303 311 309 306 306 304 309 315 308 302 295 289 284 281 291 289 280 282 287 290 292 293 290 285 280 273 265 257 254 247 242 236
215 204 217 197 202 221 220 214 237 247 250 258 272 274 270 273 283 288 289 293 294 294 331 319 306 308 304 315 315 313 312 297 299 280 279 283 288 298 300 291 289 288 287 285 286 284 286 287 275 264 254 249 242 237
202 192 223 225 229 229 244 261 275 270 260 264 267 270 274 281 280 278 281 275 276 35 324 321 310 313 301 314 310 311 309 311 311 315 315 291 280 281 283 283 283 287 286 283 281 278 277 278 273 266 264 257 254 247
206 220 218 231 242 246 249 250 255 256 252 250 254 253 264 269 278 286 321 129 173 264 302 321 319 311 305 301 298 293 291 297 304 306 313 301 298 302 296 287 281 279 279 281 283 280 272 267 265 259 256 258 256 256
215 221 228 249 257 261 244 227 251 255 230 239 246 249 251 261 273 280 213 187 207 273 320 320 304 295 304 301 296 300 304 296 306 308 302 300 299 298 293 288 284 278 280 275 271 274 276 275 269 264 259 261 265 263